Regional Weather Roundup
Issued by NWS Little Rock, AR

Home | Current Version | Previous Version | Graphics & Text | Print | Product List | Glossary On
Versions: 1 2 3 4 5 6 7 8 9 10 11 12 13 14 15 16 17 18 19 20 21 22 23 24 25 26 27 28 29 30 31 32 33 34 35 36 37 38 39 40 41 42 43 44 45 46 47 48 49 50
000
ASUS44 KLZK 051205
RWRLZK

WEATHER ROUNDUP FOR ARKANSAS
NATIONAL WEATHER SERVICE LITTLE ROCK AR
700 AM CDT TUE MAY 05 2015

NOTE: "FAIR" INDICATES FEW OR NO CLOUDS BELOW 12,000 FEET WITH NO
SIGNIFICANT WEATHER AND/OR OBSTRUCTIONS TO VISIBILITY.

ARZ001-003-010-029-051300-
NORTHWEST ARKANSAS

CITY           SKY/WX    TMP DP  RH WIND       PRES   REMARKS
FAYETTEVILLE   CLEAR     52  52 100 CALM      30.14S FOG
6HR MIN TEMP:  50; 6HR MAX TEMP:  56;

FORT SMITH     CLEAR     62  56  80 CALM      30.12R
6HR MIN TEMP:  61; 6HR MAX TEMP:  65;

HARRISON       CLEAR     57  55  93 SE5       30.17R
6HR MIN TEMP:  55; 6HR MAX TEMP:  62;

BENTONVILLE    MOCLDY    61  54  77 SE8       30.15S
ROGERS         PTCLDY    60  57  89 SE7       30.16R
6HR MIN TEMP:  59; 6HR MAX TEMP:  62;

SILOAM SPGS    MOCLDY    57  50  77 E5        30.14S
6HR MIN TEMP:  57; 6HR MAX TEMP:  61;

HIGHFILL       MOCLDY    58  54  86 E3        30.13S
6HR MIN TEMP:  54; 6HR MAX TEMP:  60;

SPRINGDALE     PTCLDY    59  55  88 E5        30.16R
$$

ARZ004-005-016-051300-
NORTH CENTRAL ARKANSAS

CITY           SKY/WX    TMP DP  RH WIND       PRES   REMARKS
BATESVILLE     MOCLDY    59  55  88 N3        30.19S
6HR MIN TEMP:  57; 6HR MAX TEMP:  63; 6HR PCP:  0.02;

FLIPPIN        CLEAR     55  54  94 CALM      30.16R
6HR MIN TEMP:  54; 6HR MAX TEMP:  63;

MTN HOME       CLEAR     60  56  86 E3        30.16S
6HR MIN TEMP:  58; 6HR MAX TEMP:  65;

$$

ARZ040-041-051300-
WEST CENTRAL ARKANSAS

CITY           SKY/WX    TMP DP  RH WIND       PRES   REMARKS
MENA           CLOUDY    70  64  83 SE7       30.13S
MOUNT IDA      CLEAR     68  62  81 VRB6      30.12S
6HR MIN TEMP:  64; 6HR MAX TEMP:  71;

$$

ARZ009-017-025-026-028-051300-
NORTHEAST ARKANSAS

CITY           SKY/WX    TMP DP  RH WIND       PRES   REMARKS
CORNING          N/A     61  55  82 NE3       30.21R
JONESBORO      PTCLDY    60  56  86 CALM      30.20R
6HR MIN TEMP:  55; 6HR MAX TEMP:  62;

NEWPORT        PTCLDY    65  57  75 SE7       30.20R
6HR MIN TEMP:  61; 6HR MAX TEMP:  66;

WALNUT RIDGE   CLEAR     59  52  77 NE5       30.19R
6HR MIN TEMP:  57; 6HR MAX TEMP:  64;

BLYTHEVILLE    SUNNY     65  56  72 S8        30.22R
6HR MIN TEMP:  63; 6HR MAX TEMP:  68;

$$

ARZ022-023-033-042-044-051300-
CENTRAL ARKANSAS

CITY           SKY/WX    TMP DP  RH WIND       PRES   REMARKS
LITTLE ROCK    MOCLDY    67  59  75 SE3       30.18R
6HR MIN TEMP:  64; 6HR MAX TEMP:  68;

N LITTLE ROCK    N/A     67  62  85 S5        30.18R
6HR MIN TEMP:  65; 6HR MAX TEMP:  70;

JACKSONVILLE   MOCLDY    61  61  99 NE1       30.17R
6HR MIN TEMP:  58; 6HR MAX TEMP:  62; 6HR PCP: TRACE;

SEARCY         MOCLDY    63  59  87 CALM      30.20R
6HR MIN TEMP:  59; 6HR MAX TEMP:  63;

HOT SPRINGS    CLOUDY    68  62  81 SE5       30.16R
6HR MIN TEMP:  67; 6HR MAX TEMP:  70;

RUSSELLVILLE   CLEAR     61  59  93 CALM      30.16R
6HR MIN TEMP:  60; 6HR MAX TEMP:  66;

$$

ARZ036-051300-
EAST ARKANSAS

CITY           SKY/WX    TMP DP  RH WIND       PRES   REMARKS
WEST MEMPHIS   CLOUDY    65  59  81 S5        30.21R
6HR MIN TEMP:  63; 6HR MAX TEMP:  69;

$$

ARZ050-053-066-070-073-051300-
SOUTHWEST ARKANSAS

CITY           SKY/WX    TMP DP  RH WIND       PRES   REMARKS
ARKADELPHIA    FAIR      65  65 100 CALM      30.16R
6HR MIN TEMP:  63; 6HR MAX TEMP:  66;

CAMDEN         CLOUDY    66  63  88 CALM      30.16R
TEXARKANA      CLOUDY    65  64  97 E3        30.12R FOG
6HR MIN TEMP:  65; 6HR MAX TEMP:  68;

EL DORADO      CLOUDY    66  63  90 E6        30.15R
6HR MIN TEMP:  64; 6HR MAX TEMP:  67;

DE QUEEN       CLOUDY    67  64  90 E7        30.10R
6HR MIN TEMP:  59; 6HR MAX TEMP:  67;

$$

ARZ056-057-069-051300-
SOUTHEAST ARKANSAS

CITY           SKY/WX    TMP DP  RH WIND       PRES   REMARKS
PINE BLUFF     PTCLDY    65  62  90 SE3       30.18R
6HR MIN TEMP:  64; 6HR MAX TEMP:  69;

STUTTGART      PTCLDY    66  59  77 SE6       30.19R
6HR MIN TEMP:  66; 6HR MAX TEMP:  68;

MONTICELLO     PTCLDY    66  63  90 CALM      30.18R
6HR MIN TEMP:  64; 6HR MAX TEMP:  69;


$$





USA.gov is the U.S. government's official web portal to all federal, state and local government web resources and services.